Time,TemperatureF,DewpointF,PressureIn,WindDirection,WindDirectionDegrees,WindSpeedMPH,WindSpeedGustMPH,Humidity,HourlyPrecipIn,Conditions,Clouds,dailyrainin,SoftwareType,DateUTC
2013-01-14 00:00:00,45.0,45.0,29.89,SW,235,6.0,6.0,100,0.00,,,0.00,Wunderground v.1.15,2013-01-14 05:00:00,
2013-01-14 00:05:00,44.9,44.9,29.89,WSW,239,6.0,6.0,100,0.00,,,0.00,Wunderground v.1.15,2013-01-14 05:05:00,
2013-01-14 00:10:00,44.9,44.9,29.89,SW,220,5.0,6.0,100,0.00,,,0.00,Wunderground v.1.15,2013-01-14 05:10:00,
2013-01-14 00:15:00,45.0,45.0,29.89,SW,225,5.0,6.0,100,0.00,,,0.00,Wunderground v.1.15,2013-01-14 05:15:00,
2013-01-14 00:20:00,45.0,45.0,29.89,WSW,251,5.0,5.0,100,0.00,,,0.00,Wunderground v.1.15,2013-01-14 05:20:00,
2013-01-14 00:25:00,45.0,45.0,29.89,WSW,250,5.0,5.0,100,0.00,,,0.00,Wunderground v.1.15,2013-01-14 05:25:00,
2013-01-14 00:35:00,45.1,45.1,29.88,South,185,5.0,7.0,100,0.00,,,0.00,Wunderground v.1.15,2013-01-14 05:35:00,
2013-01-14 00:40:00,45.1,45.1,29.88,SW,220,5.0,5.0,100,0.00,,,0.00,Wunderground v.1.15,2013-01-14 05:40:00,
2013-01-14 00:45:00,45.0,45.0,29.88,WNW,287,5.0,5.0,100,0.00,,,0.00,Wunderground v.1.15,2013-01-14 05:45:00,
2013-01-14 00:50:00,45.1,45.1,29.88,SW,230,4.0,4.0,100,0.00,,,0.00,Wunderground v.1.15,2013-01-14 05:50:00,
2013-01-14 00:55:00,45.0,45.0,29.88,WSW,256,5.0,5.0,100,0.00,,,0.00,Wunderground v.1.15,2013-01-14 05:55:00,
2013-01-14 01:00:00,44.8,44.8,29.88,West,264,4.0,5.0,100,0.00,,,0.00,Wunderground v.1.15,2013-01-14 06:00:00,
2013-01-14 01:10:00,44.8,44.8,29.89,WSW,254,5.0,5.0,100,0.00,,,0.00,Wunderground v.1.15,2013-01-14 06:10:00,
2013-01-14 01:15:00,44.8,44.8,29.89,WSW,256,5.0,9.0,100,0.00,,,0.00,Wunderground v.1.15,2013-01-14 06:15:00,
2013-01-14 01:20:00,44.9,44.9,29.89,WSW,246,6.0,6.0,100,0.00,,,0.00,Wunderground v.1.15,2013-01-14 06:20:00,
2013-01-14 01:25:00,44.9,44.9,29.89,WSW,244,5.0,6.0,100,0.00,,,0.00,Wunderground v.1.15,2013-01-14 06:25:00,
2013-01-14 01:35:00,44.9,44.9,29.88,SW,225,5.0,6.0,100,0.00,,,0.00,Wunderground v.1.15,2013-01-14 06:35:00,
2013-01-14 01:45:00,44.9,44.9,29.88,WSW,248,4.0,6.0,100,0.00,,,0.00,Wunderground v.1.15,2013-01-14 06:45:00,
2013-01-14 01:50:00,44.9,44.9,29.88,WSW,251,4.0,4.0,100,0.00,,,0.00,Wunderground v.1.15,2013-01-14 06:50:00,
2013-01-14 01:55:00,44.9,44.9,29.89,WSW,251,4.0,4.0,100,0.00,,,0.00,Wunderground v.1.15,2013-01-14 06:55:00,
2013-01-14 02:00:00,44.9,44.9,29.89,SW,232,4.0,4.0,100,0.00,,,0.00,Wunderground v.1.15,2013-01-14 07:00:00,
2013-01-14 02:10:00,45.0,45.0,29.89,WSW,251,4.0,4.0,100,0.00,,,0.00,Wunderground v.1.15,2013-01-14 07:10:00,
2013-01-14 02:15:00,45.1,45.1,29.89,WSW,251,3.0,4.0,100,0.00,,,0.00,Wunderground v.1.15,2013-01-14 07:15:00,
2013-01-14 02:20:00,45.1,45.1,29.89,WSW,251,3.0,6.0,100,0.00,,,0.00,Wunderground v.1.15,2013-01-14 07:20:00,
2013-01-14 02:25:00,45.1,45.1,29.89,WSW,251,3.0,6.0,100,0.00,,,0.00,Wunderground v.1.15,2013-01-14 07:25:00,
2013-01-14 02:30:00,45.2,45.2,29.89,WSW,253,4.0,4.0,100,0.00,,,0.00,Wunderground v.1.15,2013-01-14 07:30:00,
2013-01-14 02:35:00,45.1,45.1,29.88,WSW,253,3.0,4.0,100,0.00,,,0.00,Wunderground v.1.15,2013-01-14 07:35:00,
2013-01-14 02:40:00,45.2,45.2,29.89,WSW,244,2.0,2.0,100,0.00,,,0.00,Wunderground v.1.15,2013-01-14 07:40:00,
2013-01-14 02:50:00,45.2,45.2,29.88,SSW,209,2.0,4.0,100,0.00,,,0.00,Wunderground v.1.15,2013-01-14 07:50:00,
2013-01-14 02:55:00,45.3,45.3,29.87,SSW,208,2.0,4.0,100,0.00,,,0.00,Wunderground v.1.15,2013-01-14 07:55:00,
2013-01-14 03:05:00,45.2,45.2,29.86,SSW,207,2.0,2.0,100,0.00,,,0.00,Wunderground v.1.15,2013-01-14 08:05:00,
2013-01-14 03:10:00,45.2,44.9,29.85,SSW,192,2.0,2.0,99,0.00,,,0.00,Wunderground v.1.15,2013-01-14 08:10:00,
2013-01-14 03:15:00,45.1,44.8,29.85,SSW,194,2.0,2.0,99,0.00,,,0.00,Wunderground v.1.15,2013-01-14 08:15:00,
2013-01-14 03:25:00,44.9,44.9,29.86,SSW,198,2.0,2.0,100,0.00,,,0.00,Wunderground v.1.15,2013-01-14 08:25:00,
2013-01-14 03:30:00,44.7,44.7,29.86,SW,225,2.0,4.0,100,0.00,,,0.00,Wunderground v.1.15,2013-01-14 08:30:00,
2013-01-14 03:35:00,44.7,44.7,29.86,WSW,237,2.0,4.0,100,0.00,,,0.00,Wunderground v.1.15,2013-01-14 08:35:00,
2013-01-14 03:45:00,44.8,44.8,29.86,WSW,237,3.0,5.0,100,0.00,,,0.00,Wunderground v.1.15,2013-01-14 08:45:00,
2013-01-14 03:50:00,44.8,44.8,29.85,WSW,237,3.0,3.0,100,0.00,,,0.00,Wunderground v.1.15,2013-01-14 08:50:00,
2013-01-14 04:00:00,44.9,44.9,29.84,SW,225,3.0,3.0,100,0.00,,,0.00,Wunderground v.1.15,2013-01-14 09:00:00,
2013-01-14 04:10:00,44.7,44.7,29.84,WSW,239,3.0,4.0,100,0.00,,,0.00,Wunderground v.1.15,2013-01-14 09:10:00,
2013-01-14 04:15:00,44.6,44.3,29.84,WSW,237,3.0,4.0,99,0.00,,,0.00,Wunderground v.1.15,2013-01-14 09:15:00,
2013-01-14 04:20:00,44.5,44.2,29.83,SW,220,3.0,3.0,99,0.00,,,0.00,Wunderground v.1.15,2013-01-14 09:20:00,
2013-01-14 04:25:00,44.6,44.3,29.83,SSW,196,2.0,3.0,99,0.00,,,0.00,Wunderground v.1.15,2013-01-14 09:25:00,
2013-01-14 04:35:00,44.6,44.3,29.83,SW,231,3.0,4.0,99,0.00,,,0.00,Wunderground v.1.15,2013-01-14 09:35:00,
2013-01-14 04:40:00,44.5,44.2,29.83,SW,231,3.0,4.0,99,0.00,,,0.00,Wunderground v.1.15,2013-01-14 09:40:00,
2013-01-14 04:45:00,44.3,44.3,29.83,SW,232,2.0,5.0,100,0.00,,,0.00,Wunderground v.1.15,2013-01-14 09:45:00,
2013-01-14 04:55:00,44.3,44.3,29.83,SW,235,4.0,6.0,100,0.00,,,0.00,Wunderground v.1.15,2013-01-14 09:55:00,
2013-01-14 05:00:00,44.3,44.3,29.83,WSW,249,4.0,5.0,100,0.00,,,0.00,Wunderground v.1.15,2013-01-14 10:00:00,
2013-01-14 05:10:00,44.5,44.2,29.82,WSW,243,3.0,5.0,99,0.00,,,0.00,Wunderground v.1.15,2013-01-14 10:10:00,
2013-01-14 05:15:00,44.5,44.2,29.82,WSW,244,3.0,5.0,99,0.00,,,0.00,Wunderground v.1.15,2013-01-14 10:15:00,
2013-01-14 05:20:00,44.5,44.2,29.82,WSW,245,2.0,3.0,99,0.00,,,0.00,Wunderground v.1.15,2013-01-14 10:20:00,
2013-01-14 05:25:00,44.5,44.2,29.82,WSW,248,3.0,4.0,99,0.00,,,0.00,Wunderground v.1.15,2013-01-14 10:25:00,
2013-01-14 05:35:00,44.6,44.3,29.80,SSW,207,4.0,4.0,99,0.00,,,0.00,Wunderground v.1.15,2013-01-14 10:35:00,
2013-01-14 05:40:00,44.5,44.2,29.79,SSW,204,4.0,4.0,99,0.00,,,0.00,Wunderground v.1.15,2013-01-14 10:40:00,
2013-01-14 05:45:00,44.5,44.2,29.79,WSW,239,4.0,6.0,99,0.00,,,0.00,Wunderground v.1.15,2013-01-14 10:45:00,
2013-01-14 05:50:00,44.5,44.2,29.79,WSW,246,5.0,5.0,99,0.00,,,0.00,Wunderground v.1.15,2013-01-14 10:50:00,
2013-01-14 05:55:00,44.7,44.7,29.80,WSW,246,5.0,5.0,100,0.00,,,0.00,Wunderground v.1.15,2013-01-14 10:55:00,
2013-01-14 06:00:00,44.6,44.3,29.82,WSW,244,4.0,4.0,99,0.00,,,0.00,Wunderground v.1.15,2013-01-14 11:00:00,
2013-01-14 06:10:00,44.4,44.1,29.82,WSW,248,4.0,4.0,99,0.00,,,0.00,Wunderground v.1.15,2013-01-14 11:10:00,
2013-01-14 06:15:00,44.4,44.1,29.81,WSW,251,4.0,6.0,99,0.00,,,0.00,Wunderground v.1.15,2013-01-14 11:15:00,
2013-01-14 06:20:00,44.4,44.1,29.81,WSW,252,4.0,5.0,99,0.00,,,0.00,Wunderground v.1.15,2013-01-14 11:20:00,
2013-01-14 06:25:00,44.5,44.2,29.79,SSW,198,4.0,5.0,99,0.00,,,0.00,Wunderground v.1.15,2013-01-14 11:25:00,
2013-01-14 06:30:00,44.5,44.5,29.79,SSW,208,3.0,4.0,100,0.00,,,0.00,Wunderground v.1.15,2013-01-14 11:30:00,
2013-01-14 06:35:00,44.5,44.5,29.81,WSW,242,4.0,4.0,100,0.00,,,0.00,Wunderground v.1.15,2013-01-14 11:35:00,
2013-01-14 06:40:00,44.3,44.3,29.81,WSW,249,4.0,5.0,100,0.00,,,0.00,Wunderground v.1.15,2013-01-14 11:40:00,
2013-01-14 06:50:00,44.4,44.4,29.81,WSW,248,4.0,4.0,100,0.00,,,0.00,Wunderground v.1.15,2013-01-14 11:50:00,
2013-01-14 06:55:00,44.5,44.5,29.81,WSW,248,3.0,4.0,100,0.00,,,0.00,Wunderground v.1.15,2013-01-14 11:55:00,
2013-01-14 07:00:00,44.3,44.3,29.83,WSW,248,2.0,5.0,100,0.00,,,0.00,Wunderground v.1.15,2013-01-14 12:00:00,
2013-01-14 07:10:00,44.2,44.2,29.84,WSW,248,5.0,5.0,100,0.00,,,0.00,Wunderground v.1.15,2013-01-14 12:10:00,
2013-01-14 07:15:00,44.3,44.3,29.85,WSW,257,5.0,7.0,100,0.00,,,0.00,Wunderground v.1.15,2013-01-14 12:15:00,
2013-01-14 07:25:00,44.9,44.9,29.83,WSW,253,5.0,5.0,100,0.00,,,0.00,Wunderground v.1.15,2013-01-14 12:25:00,
2013-01-14 07:30:00,45.1,45.1,29.83,West,262,3.0,3.0,100,0.00,,,0.00,Wunderground v.1.15,2013-01-14 12:30:00,
2013-01-14 07:40:00,45.2,45.2,29.83,WSW,254,5.0,5.0,100,0.00,,,0.00,Wunderground v.1.15,2013-01-14 12:40:00,
2013-01-14 07:50:00,45.1,45.1,29.84,WSW,247,5.0,5.0,100,0.00,,,0.00,Wunderground v.1.15,2013-01-14 12:50:00,
2013-01-14 08:00:00,45.2,45.2,29.82,WSW,240,4.0,4.0,100,0.00,,,0.00,Wunderground v.1.15,2013-01-14 13:00:00,
2013-01-14 08:10:00,45.2,45.2,29.83,WSW,242,4.0,4.0,100,0.00,,,0.00,Wunderground v.1.15,2013-01-14 13:10:00,
2013-01-14 08:15:00,45.2,45.2,29.83,WSW,246,4.0,7.0,100,0.00,,,0.00,Wunderground v.1.15,2013-01-14 13:15:00,
2013-01-14 08:25:00,45.2,45.2,29.83,WSW,249,5.0,5.0,100,0.00,,,0.00,Wunderground v.1.15,2013-01-14 13:25:00,
2013-01-14 08:35:00,45.2,45.2,29.82,SW,236,4.0,4.0,100,0.00,,,0.00,Wunderground v.1.15,2013-01-14 13:35:00,
2013-01-14 08:40:00,45.2,45.2,29.82,WSW,253,4.0,4.0,100,0.00,,,0.00,Wunderground v.1.15,2013-01-14 13:40:00,
2013-01-14 08:50:00,45.1,45.1,29.83,SW,236,3.0,3.0,100,0.00,,,0.00,Wunderground v.1.15,2013-01-14 13:50:00,
2013-01-14 08:55:00,45.0,45.0,29.83,SW,234,3.0,3.0,100,0.00,,,0.00,Wunderground v.1.15,2013-01-14 13:55:00,
2013-01-14 09:00:00,44.9,44.9,29.83,SW,233,4.0,4.0,100,0.00,,,0.00,Wunderground v.1.15,2013-01-14 14:00:00,
2013-01-14 09:10:00,44.8,44.8,29.85,WSW,244,5.0,5.0,100,0.00,,,0.00,Wunderground v.1.15,2013-01-14 14:10:00,
2013-01-14 09:15:00,44.9,44.9,29.84,SW,232,6.0,6.0,100,0.00,,,0.00,Wunderground v.1.15,2013-01-14 14:15:00,
2013-01-14 09:25:00,44.9,44.9,29.84,SW,233,5.0,6.0,100,0.00,,,0.00,Wunderground v.1.15,2013-01-14 14:25:00,
2013-01-14 09:30:00,44.9,44.9,29.85,WSW,258,5.0,6.0,100,0.00,,,0.00,Wunderground v.1.15,2013-01-14 14:30:00,
2013-01-14 09:40:00,45.0,45.0,29.84,WSW,247,5.0,5.0,100,0.00,,,0.00,Wunderground v.1.15,2013-01-14 14:40:00,
2013-01-14 09:45:00,45.1,45.1,29.84,SW,231,5.0,5.0,100,0.00,,,0.00,Wunderground v.1.15,2013-01-14 14:45:00,
2013-01-14 09:55:00,45.1,45.1,29.84,West,265,5.0,7.0,100,0.00,,,0.00,Wunderground v.1.15,2013-01-14 14:55:00,
2013-01-14 10:00:00,45.1,45.1,29.84,WSW,254,6.0,6.0,100,0.00,,,0.00,Wunderground v.1.15,2013-01-14 15:00:00,
2013-01-14 10:10:00,45.2,45.2,29.84,WSW,257,6.0,6.0,100,0.00,,,0.00,Wunderground v.1.15,2013-01-14 15:10:00,
2013-01-14 10:15:00,45.2,45.2,29.84,WSW,248,6.0,8.0,100,0.00,,,0.00,Wunderground v.1.15,2013-01-14 15:15:00,
2013-01-14 10:20:00,45.4,45.4,29.84,West,261,6.0,6.0,100,0.00,,,0.00,Wunderground v.1.15,2013-01-14 15:20:00,
2013-01-14 10:30:00,45.6,45.6,29.85,WSW,255,4.0,4.0,100,0.00,,,0.00,Wunderground v.1.15,2013-01-14 15:30:00,
2013-01-14 10:35:00,45.5,45.5,29.84,WNW,301,4.0,5.0,100,0.00,,,0.00,Wunderground v.1.15,2013-01-14 15:35:00,
2013-01-14 10:45:00,45.4,45.4,29.84,WSW,258,5.0,6.0,100,0.00,,,0.00,Wunderground v.1.15,2013-01-14 15:45:00,
2013-01-14 10:55:00,45.6,45.3,29.84,WSW,254,6.0,6.0,99,0.00,,,0.00,Wunderground v.1.15,2013-01-14 15:55:00,
2013-01-14 11:01:00,45.7,45.4,29.85,WSW,250,6.0,6.0,99,0.00,,,0.00,Wunderground v.1.15,2013-01-14 16:01:00,
2013-01-14 11:10:00,45.9,45.6,29.84,WSW,247,6.0,6.0,99,0.00,,,0.00,Wunderground v.1.15,2013-01-14 16:10:00,
2013-01-14 11:15:00,46.1,45.8,29.83,WSW,247,5.0,6.0,99,0.00,,,0.00,Wunderground v.1.15,2013-01-14 16:15:00,
2013-01-14 11:25:00,46.7,46.4,29.83,WSW,247,2.0,3.0,99,0.00,,,0.00,Wunderground v.1.15,2013-01-14 16:25:00,
2013-01-14 11:35:00,47.4,47.1,29.83,WSW,247,3.0,3.0,99,0.00,,,0.00,Wunderground v.1.15,2013-01-14 16:35:00,
2013-01-14 11:40:00,47.9,47.6,29.83,WSW,247,3.0,3.0,99,0.00,,,0.00,Wunderground v.1.15,2013-01-14 16:40:00,
2013-01-14 11:50:00,48.4,48.1,29.83,WSW,247,3.0,3.0,99,0.00,,,0.00,Wunderground v.1.15,2013-01-14 16:50:00,
2013-01-14 11:55:00,48.4,48.1,29.83,WSW,247,4.0,4.0,99,0.00,,,0.00,Wunderground v.1.15,2013-01-14 16:55:00,
2013-01-14 12:01:00,48.5,48.2,29.83,WSW,247,4.0,4.0,99,0.00,,,0.00,Wunderground v.1.15,2013-01-14 17:01:00,
2013-01-14 12:10:00,48.9,48.4,29.84,WSW,242,4.0,4.0,98,0.00,,,0.00,Wunderground v.1.15,2013-01-14 17:10:00,
2013-01-14 12:15:00,49.2,48.7,29.84,WSW,242,3.0,4.0,98,0.00,,,0.00,Wunderground v.1.15,2013-01-14 17:15:00,
2013-01-14 12:21:00,49.4,48.9,29.84,WSW,242,3.0,4.0,98,0.00,,,0.00,Wunderground v.1.15,2013-01-14 17:21:00,
2013-01-14 12:30:00,49.7,48.9,29.84,WSW,249,3.0,3.0,97,0.00,,,0.00,Wunderground v.1.15,2013-01-14 17:30:00,
2013-01-14 12:40:00,50.2,49.4,29.84,WSW,249,3.0,3.0,97,0.00,,,0.00,Wunderground v.1.15,2013-01-14 17:40:00,
2013-01-14 12:45:00,50.3,49.2,29.84,WSW,250,3.0,3.0,96,0.00,,,0.00,Wunderground v.1.15,2013-01-14 17:45:00,
2013-01-14 12:50:00,50.4,49.3,29.85,WSW,251,4.0,4.0,96,0.00,,,0.00,Wunderground v.1.15,2013-01-14 17:50:00,
2013-01-14 12:56:00,50.6,49.5,29.85,WSW,250,3.0,4.0,96,0.00,,,0.00,Wunderground v.1.15,2013-01-14 17:56:00,
2013-01-14 13:01:00,50.9,49.8,29.86,WSW,246,3.0,3.0,96,0.00,,,0.00,Wunderground v.1.15,2013-01-14 18:01:00,
2013-01-14 13:10:00,51.3,49.9,29.86,WSW,246,2.0,2.0,95,0.00,,,0.00,Wunderground v.1.15,2013-01-14 18:10:00,
2013-01-14 13:16:00,51.6,50.2,29.87,WSW,246,2.0,2.0,95,0.00,,,0.00,Wunderground v.1.15,2013-01-14 18:16:00,
2013-01-14 13:25:00,52.2,50.5,29.87,WSW,246,1.0,1.0,94,0.00,,,0.00,Wunderground v.1.15,2013-01-14 18:25:00,
2013-01-14 13:35:00,52.7,51.3,29.87,WSW,246,0.0,1.0,95,0.00,,,0.00,Wunderground v.1.15,2013-01-14 18:35:00,
2013-01-14 13:40:00,53.2,51.5,29.87,WSW,246,0.0,0.0,94,0.00,,,0.00,Wunderground v.1.15,2013-01-14 18:40:00,
2013-01-14 13:46:00,53.7,52.0,29.88,WSW,246,0.0,0.0,94,0.00,,,0.00,Wunderground v.1.15,2013-01-14 18:46:00,
2013-01-14 13:51:00,54.0,52.0,29.88,WSW,246,0.0,0.0,93,0.00,,,0.00,Wunderground v.1.15,2013-01-14 18:51:00,
2013-01-14 14:01:00,55.0,52.7,29.89,WSW,246,0.0,0.0,92,0.00,,,0.00,Wunderground v.1.15,2013-01-14 19:01:00,
2013-01-14 14:10:00,55.0,52.1,29.90,WSW,246,1.0,1.0,90,0.00,,,0.00,Wunderground v.1.15,2013-01-14 19:10:00,
2013-01-14 14:15:00,54.7,51.8,29.90,WSW,246,0.0,1.0,90,0.00,,,0.00,Wunderground v.1.15,2013-01-14 19:15:00,
2013-01-14 14:25:00,54.2,51.3,29.91,WSW,246,0.0,0.0,90,0.00,,,0.00,Wunderground v.1.15,2013-01-14 19:25:00,
2013-01-14 14:31:00,53.3,50.4,29.91,WSW,246,0.0,0.0,90,0.00,,,0.00,Wunderground v.1.15,2013-01-14 19:31:00,
2013-01-14 14:40:00,52.4,50.1,29.92,WSW,246,0.0,0.0,92,0.00,,,0.00,Wunderground v.1.15,2013-01-14 19:40:00,
2013-01-14 14:46:00,52.1,49.8,29.92,WSW,246,0.0,0.0,92,0.00,,,0.00,Wunderground v.1.15,2013-01-14 19:46:00,
2013-01-14 14:56:00,52.0,50.0,29.93,WSW,246,0.0,0.0,93,0.00,,,0.00,Wunderground v.1.15,2013-01-14 19:56:00,
2013-01-14 15:01:00,52.3,50.0,29.94,NW,320,1.0,2.0,92,0.00,,,0.00,Wunderground v.1.15,2013-01-14 20:01:00,
2013-01-14 15:10:00,52.3,47.9,29.94,North,350,3.0,3.0,85,0.00,,,0.00,Wunderground v.1.15,2013-01-14 20:10:00,
2013-01-14 15:15:00,52.0,47.0,29.95,North,354,2.0,3.0,83,0.00,,,0.00,Wunderground v.1.15,2013-01-14 20:15:00,
2013-01-14 15:21:00,51.7,45.7,29.96,NNE,13,2.0,5.0,80,0.00,,,0.00,Wunderground v.1.15,2013-01-14 20:21:00,
2013-01-14 15:30:00,51.3,44.0,29.96,North,350,3.0,3.0,76,0.00,,,0.00,Wunderground v.1.15,2013-01-14 20:30:00,
2013-01-14 15:36:00,50.9,42.9,29.96,North,350,3.0,3.0,74,0.00,,,0.00,Wunderground v.1.15,2013-01-14 20:36:00,
2013-01-14 15:46:00,50.4,41.3,29.97,NNW,333,4.0,5.0,71,0.00,,,0.00,Wunderground v.1.15,2013-01-14 20:46:00,
2013-01-14 15:55:00,50.2,40.0,29.98,NNE,21,4.0,5.0,68,0.00,,,0.00,Wunderground v.1.15,2013-01-14 20:55:00,
2013-01-14 16:01:00,50.0,38.3,29.99,NNW,329,5.0,8.0,64,0.00,,,0.00,Wunderground v.1.15,2013-01-14 21:01:00,
2013-01-14 16:11:00,49.0,36.9,29.99,North,358,7.0,7.0,63,0.00,,,0.00,Wunderground v.1.15,2013-01-14 21:11:00,
2013-01-14 16:16:00,48.6,36.2,30.00,NNW,335,5.0,7.0,62,0.00,,,0.00,Wunderground v.1.15,2013-01-14 21:16:00,
2013-01-14 16:21:00,48.2,35.4,30.00,NNE,19,3.0,6.0,61,0.00,,,0.00,Wunderground v.1.15,2013-01-14 21:21:00,
2013-01-14 16:30:00,47.6,33.5,30.00,NNW,335,4.0,4.0,58,0.00,,,0.00,Wunderground v.1.15,2013-01-14 21:30:00,
2013-01-14 16:36:00,47.3,34.5,30.01,North,349,3.0,4.0,61,0.00,,,0.00,Wunderground v.1.15,2013-01-14 21:36:00,
2013-01-14 16:41:00,46.7,34.0,30.01,NNE,12,2.0,2.0,61,0.00,,,0.00,Wunderground v.1.15,2013-01-14 21:41:00,
2013-01-14 16:51:00,45.9,32.4,30.02,NNW,337,2.0,2.0,59,0.00,,,0.00,Wunderground v.1.15,2013-01-14 21:51:00,
2013-01-14 16:56:00,45.3,33.0,30.02,NNW,344,5.0,11.0,62,0.00,,,0.00,Wunderground v.1.15,2013-01-14 21:56:00,
2013-01-14 17:01:00,44.9,32.7,30.02,NNW,332,9.0,12.0,62,0.00,,,0.00,Wunderground v.1.15,2013-01-14 22:01:00,
2013-01-14 17:10:00,44.5,32.7,30.03,NNW,328,11.0,11.0,63,0.00,,,0.00,Wunderground v.1.15,2013-01-14 22:10:00,
2013-01-14 17:16:00,44.6,31.6,30.04,North,6,10.0,11.0,60,0.00,,,0.01,Wunderground v.1.15,2013-01-14 22:16:00,
2013-01-14 17:26:00,44.4,31.8,30.04,NNW,341,9.0,9.0,61,0.00,,,0.01,Wunderground v.1.15,2013-01-14 22:26:00,
2013-01-14 17:31:00,44.0,31.4,30.04,NNW,329,9.0,9.0,61,0.00,,,0.01,Wunderground v.1.15,2013-01-14 22:31:00,
2013-01-14 17:41:00,43.3,31.5,30.05,NNW,329,9.0,12.0,63,0.00,,,0.01,Wunderground v.1.15,2013-01-14 22:41:00,
2013-01-14 17:46:00,42.9,32.3,30.05,NNW,342,9.0,12.0,66,0.00,,,0.01,Wunderground v.1.15,2013-01-14 22:46:00,
2013-01-14 17:56:00,42.2,31.3,30.05,North,353,2.0,5.0,65,0.00,,,0.01,Wunderground v.1.15,2013-01-14 22:56:00,
2013-01-14 18:01:00,42.0,31.1,30.06,North,5,2.0,2.0,65,0.00,,,0.01,Wunderground v.1.15,2013-01-14 23:01:00,
2013-01-14 18:11:00,41.7,30.8,30.06,North,359,2.0,2.0,65,0.00,,,0.01,Wunderground v.1.15,2013-01-14 23:11:00,
2013-01-14 18:21:00,41.7,31.2,30.05,NNW,337,3.0,4.0,66,0.00,,,0.01,Wunderground v.1.15,2013-01-14 23:21:00,
2013-01-14 18:31:00,41.0,30.9,30.05,NNE,28,2.0,2.0,67,0.00,,,0.01,Wunderground v.1.15,2013-01-14 23:31:00,
2013-01-14 18:36:00,40.9,30.4,30.06,North,354,3.0,3.0,66,0.00,,,0.01,Wunderground v.1.15,2013-01-14 23:36:00,
2013-01-14 18:46:00,40.9,30.4,30.06,NNW,345,4.0,5.0,66,0.00,,,0.01,Wunderground v.1.15,2013-01-14 23:46:00,
2013-01-14 18:51:00,40.6,30.1,30.07,NNW,332,3.0,8.0,66,0.00,,,0.01,Wunderground v.1.15,2013-01-14 23:51:00,
2013-01-14 18:56:00,40.5,30.0,30.08,NNW,332,3.0,8.0,66,0.00,,,0.01,Wunderground v.1.15,2013-01-14 23:56:00,
2013-01-14 19:01:00,40.2,30.1,30.08,NNW,342,3.0,3.0,67,0.00,,,0.01,Wunderground v.1.15,2013-01-15 00:01:00,
2013-01-14 19:11:00,40.0,30.3,30.08,NNW,337,4.0,4.0,68,0.00,,,0.01,Wunderground v.1.15,2013-01-15 00:11:00,
2013-01-14 19:16:00,40.0,30.3,30.09,NNW,335,6.0,12.0,68,0.00,,,0.01,Wunderground v.1.15,2013-01-15 00:16:00,
2013-01-14 19:21:00,39.9,30.5,30.09,NNW,329,7.0,7.0,69,0.00,,,0.01,Wunderground v.1.15,2013-01-15 00:21:00,
2013-01-14 19:26:00,39.7,30.0,30.09,NNW,344,5.0,7.0,68,0.00,,,0.01,Wunderground v.1.15,2013-01-15 00:26:00,
2013-01-14 19:31:00,39.7,29.6,30.10,North,351,4.0,5.0,67,0.00,,,0.01,Wunderground v.1.15,2013-01-15 00:31:00,
2013-01-14 19:47:00,39.7,29.3,30.10,North,8,4.0,9.0,66,0.00,,,0.01,Wunderground v.1.15,2013-01-15 00:47:00,
2013-01-14 19:55:00,39.5,29.1,30.10,NW,324,4.0,7.0,66,0.00,,,0.01,Wunderground v.1.15,2013-01-15 00:55:00,
2013-01-14 20:00:00,39.4,29.7,30.11,NNW,333,6.0,11.0,68,0.00,,,0.01,Wunderground v.1.15,2013-01-15 01:00:00,
2013-01-14 20:10:00,39.3,28.9,30.11,North,351,7.0,7.0,66,0.00,,,0.01,Wunderground v.1.15,2013-01-15 01:10:00,
2013-01-14 20:15:00,39.3,28.9,30.11,North,352,5.0,8.0,66,0.00,,,0.01,Wunderground v.1.15,2013-01-15 01:15:00,
2013-01-14 20:20:00,39.3,29.3,30.10,NW,324,5.0,6.0,67,0.00,,,0.01,Wunderground v.1.15,2013-01-15 01:20:00,
2013-01-14 20:25:00,39.2,29.2,30.12,NNW,336,7.0,9.0,67,0.00,,,0.01,Wunderground v.1.15,2013-01-15 01:25:00,
2013-01-14 20:35:00,38.9,29.2,30.14,North,356,7.0,8.0,68,0.00,,,0.01,Wunderground v.1.15,2013-01-15 01:35:00,
2013-01-14 20:40:00,38.8,29.8,30.14,NNW,331,8.0,8.0,70,0.00,,,0.01,Wunderground v.1.15,2013-01-15 01:40:00,
2013-01-14 20:45:00,38.6,29.7,30.13,NNW,340,7.0,8.0,70,0.00,,,0.01,Wunderground v.1.15,2013-01-15 01:45:00,
2013-01-14 20:55:00,38.4,29.1,30.13,NNE,13,2.0,5.0,69,0.00,,,0.01,Wunderground v.1.15,2013-01-15 01:55:00,
2013-01-14 21:00:00,38.2,28.9,30.13,NNE,13,1.0,1.0,69,0.00,,,0.01,Wunderground v.1.15,2013-01-15 02:00:00,
2013-01-14 21:10:00,37.8,28.9,30.13,NNW,337,2.0,5.0,70,0.00,,,0.01,Wunderground v.1.15,2013-01-15 02:10:00,
2013-01-14 21:15:00,37.8,28.9,30.13,NNW,333,2.0,7.0,70,0.00,,,0.01,Wunderground v.1.15,2013-01-15 02:15:00,
2013-01-14 21:25:00,37.8,28.5,30.12,NNW,341,3.0,3.0,69,0.00,,,0.01,Wunderground v.1.15,2013-01-15 02:25:00,
2013-01-14 21:30:00,37.7,28.8,30.11,NNW,341,2.0,2.0,70,0.00,,,0.01,Wunderground v.1.15,2013-01-15 02:30:00,
2013-01-14 21:35:00,37.3,28.8,30.11,NNW,341,1.0,2.0,71,0.00,,,0.01,Wunderground v.1.15,2013-01-15 02:35:00,
2013-01-14 21:45:00,36.9,28.4,30.12,NNW,341,1.0,2.0,71,0.00,,,0.01,Wunderground v.1.15,2013-01-15 02:45:00,
2013-01-14 21:50:00,36.9,28.4,30.12,NNW,340,1.0,1.0,71,0.00,,,0.01,Wunderground v.1.15,2013-01-15 02:50:00,
2013-01-14 21:55:00,36.9,28.7,30.12,NNW,340,2.0,2.0,72,0.00,,,0.01,Wunderground v.1.15,2013-01-15 02:55:00,
2013-01-14 22:00:00,36.9,28.7,30.12,NNW,334,2.0,2.0,72,0.00,,,0.01,Wunderground v.1.15,2013-01-15 03:00:00,
2013-01-14 22:10:00,36.9,29.1,30.12,North,2,2.0,2.0,73,0.00,,,0.01,Wunderground v.1.15,2013-01-15 03:10:00,
2013-01-14 22:15:00,36.8,29.0,30.12,North,2,1.0,2.0,73,0.00,,,0.01,Wunderground v.1.15,2013-01-15 03:15:00,
2013-01-14 22:20:00,36.8,29.0,30.12,North,356,1.0,1.0,73,0.00,,,0.01,Wunderground v.1.15,2013-01-15 03:20:00,
2013-01-14 22:30:00,36.7,29.2,30.13,NNW,333,1.0,1.0,74,0.00,,,0.01,Wunderground v.1.15,2013-01-15 03:30:00,
2013-01-14 22:35:00,36.6,28.8,30.13,NNW,327,1.0,1.0,73,0.00,,,0.01,Wunderground v.1.15,2013-01-15 03:35:00,
2013-01-14 22:40:00,36.7,29.2,30.13,NW,321,2.0,2.0,74,0.00,,,0.01,Wunderground v.1.15,2013-01-15 03:40:00,
2013-01-14 22:45:00,36.8,29.3,30.13,NNW,331,3.0,3.0,74,0.00,,,0.01,Wunderground v.1.15,2013-01-15 03:45:00,
2013-01-14 22:55:00,36.8,29.3,30.14,NNW,335,2.0,5.0,74,0.00,,,0.01,Wunderground v.1.15,2013-01-15 03:55:00,
2013-01-14 23:00:00,36.7,29.2,30.14,NNW,343,2.0,5.0,74,0.00,,,0.01,Wunderground v.1.15,2013-01-15 04:00:00,
2013-01-14 23:10:00,36.8,29.3,30.14,NNE,13,3.0,3.0,74,0.00,,,0.01,Wunderground v.1.15,2013-01-15 04:10:00,
2013-01-14 23:20:00,36.5,28.7,30.14,NNE,21,1.0,1.0,73,0.00,,,0.01,Wunderground v.1.15,2013-01-15 04:20:00,
2013-01-14 23:25:00,36.4,28.9,30.13,North,358,1.0,1.0,74,0.00,,,0.01,Wunderground v.1.15,2013-01-15 04:25:00,
2013-01-14 23:35:00,36.5,29.0,30.14,North,9,2.0,5.0,74,0.00,,,0.01,Wunderground v.1.15,2013-01-15 04:35:00,
2013-01-14 23:40:00,36.3,28.5,30.13,North,9,1.0,1.0,73,0.00,,,0.01,Wunderground v.1.15,2013-01-15 04:40:00,
2013-01-14 23:50:00,36.1,28.3,30.14,North,9,0.0,0.0,73,0.00,,,0.01,Wunderground v.1.15,2013-01-15 04:50:00,
2013-01-14 23:55:00,36.0,27.8,30.14,North,9,0.0,1.0,72,0.00,,,0.01,Wunderground v.1.15,2013-01-15 04:55:00,